, AK

(GMT )
Denali Park

Weather History for PAIN - December, 2011

Change the Weather History Date:

Wednesday, December 28, 2011

  Actual Average Record
Temperature  
Mean Temperature -10 °F -  
Max Temperature -9 °F 18 °F 43 °F (1985)
Min Temperature -11 °F 0 °F -52 °F (1961)
Degree Days  
Heating Degree Days 75    
Moisture  
Dew Point -15 °F    
Average Humidity 81    
Maximum Humidity 84    
Minimum Humidity 77    
Precipitation  
Precipitation 0.00 in - - ()
Sea Level Pressure  
Sea Level Pressure 29.09 in    
Wind  
Wind Speed 10 mph (North)    
Max Wind Speed 16 mph    
Max Gust Speed 26 mph    
Visibility 4 miles    
Events      
Averages and records for this station are not official NWS values.
T = Trace of Precipitation, MM = Missing Value Source: NWS Daily Summary

Daily Weather History Graph

Daily Weather History Graph

Search for Another Location

Airport or City:

Trip Planner

Search our weather history database for the weather conditions in past years. The results will help you decide how hot, cold, wet, or windy it might be!

Date:

Astronomy

Dec. 28, 2011 Rise Set
Actual Time 10:43 AM AKST 3:10 PM AKST
Civil Twilight 9:28 AM AKST 4:25 PM AKST
Nautical Twilight 8:21 AM AKST 5:33 PM AKST
Astronomical Twilight 7:22 AM AKST 6:31 PM AKST
Moon 11:24 AM AKST (12/28) 9:57 PM AKST (12/28)
Length of Visible Light 6h 57m
Length of Day
4h 27m
Waxing Crescent, 19% of the Moon is Illuminated
Dec 28
Waxing Crescent
Dec 31
First Quarter
Jan 8
Full
Jan 16
Last Quarter
Jan 22
New

Hourly Weather History & Observations

Time (AKST) Temp. Windchill Dew Point Humidity Pressure Visibility Wind Dir Wind Speed Gust Speed Precip Events Conditions
12:16 AM -11.2 °F -31.1 °F -14.8 °F 84% 29.09 in 10.0 mi North 11.5 mph 18.4 mph N/A   Overcast
12:36 AM -11.2 °F -32.1 °F -14.8 °F 84% 29.08 in 9.0 mi North 12.7 mph 23.0 mph N/A   Overcast
12:56 AM -9.4 °F -29.8 °F -14.8 °F 77% 29.08 in 5.0 mi North 12.7 mph 21.9 mph N/A   Overcast
1:16 AM -9.4 °F -29.8 °F -14.8 °F 77% 29.07 in 8.0 mi North 12.7 mph 20.7 mph N/A   Overcast
1:36 AM -9.4 °F -27.9 °F -14.8 °F 77% 29.08 in 2.5 mi North 10.4 mph 23.0 mph N/A   Overcast
1:56 AM -9.4 °F -27.9 °F -14.8 °F 77% 29.07 in 2.5 mi NNW 10.4 mph 20.7 mph N/A   Overcast
2:16 AM -9.4 °F -24.3 °F -13.0 °F 84% 29.08 in 3.0 mi North 6.9 mph 20.7 mph N/A   Overcast
2:36 AM -9.4 °F -30.6 °F -14.8 °F 77% 29.07 in 3.0 mi North 13.8 mph 23.0 mph N/A   Overcast
2:56 AM -9.4 °F -28.9 °F -14.8 °F 77% 29.08 in 2.0 mi North 11.5 mph 24.2 mph N/A   Overcast
3:16 AM -9.4 °F -27.9 °F -14.8 °F 77% 29.07 in 1.2 mi NNE 10.4 mph 20.7 mph N/A   Overcast
3:36 AM -11.2 °F -31.1 °F -14.8 °F 84% 29.07 in 1.8 mi NNE 11.5 mph 19.6 mph N/A   Overcast
3:56 AM -9.4 °F -29.8 °F -14.8 °F 77% 29.07 in 1.2 mi North 12.7 mph 20.7 mph N/A   Overcast
4:16 AM -9.4 °F -30.6 °F -14.8 °F 77% 29.07 in 0.8 mi North 13.8 mph 26.5 mph N/A   Overcast
4:36 AM -9.4 °F -32.1 °F -14.8 °F 77% 29.07 in 1.5 mi North 16.1 mph 23.0 mph N/A   Overcast
5:16 AM -9.4 °F -31.4 °F -14.8 °F 77% 29.06 in 1.8 mi NNE 15.0 mph 23.0 mph N/A   Overcast
5:36 AM -9.4 °F -31.4 °F -14.8 °F 77% 29.07 in 1.5 mi NNE 15.0 mph 20.7 mph N/A   Overcast
5:56 AM -9.4 °F -30.6 °F -14.8 °F 77% 29.07 in 1.5 mi North 13.8 mph 18.4 mph N/A   Overcast
6:16 AM -9.4 °F -27.9 °F -14.8 °F 77% 29.07 in 1.2 mi North 10.4 mph 18.4 mph N/A   Overcast
6:36 AM -9.4 °F -27.9 °F -14.8 °F 77% 29.08 in 1.8 mi NNE 10.4 mph 17.3 mph N/A   Overcast
6:56 AM -9.4 °F -26.8 °F -14.8 °F 77% 29.08 in 1.8 mi NNE 9.2 mph 17.3 mph N/A   Overcast
7:16 AM -11.2 °F -30.1 °F -14.8 °F 84% 29.08 in 4.0 mi NNE 10.4 mph - N/A   Overcast
7:36 AM -11.2 °F -30.1 °F -14.8 °F 84% 29.09 in 4.0 mi NNE 10.4 mph - N/A   Mostly Cloudy
7:56 AM -11.2 °F -31.1 °F -14.8 °F 84% 29.09 in 2.0 mi North 11.5 mph 18.4 mph N/A   Overcast
8:16 AM -11.2 °F -30.1 °F -14.8 °F 84% 29.09 in 5.0 mi North 10.4 mph - N/A   Overcast
8:36 AM -11.2 °F -30.1 °F -14.8 °F 84% 29.09 in 5.0 mi North 10.4 mph - N/A   Overcast
8:56 AM -11.2 °F -29.0 °F -14.8 °F 84% 29.09 in 4.0 mi North 9.2 mph - N/A   Overcast
9:16 AM -11.2 °F -27.8 °F -14.8 °F 84% 29.10 in 4.0 mi North 8.1 mph - N/A   Overcast
9:36 AM -11.2 °F -30.1 °F -14.8 °F 84% 29.10 in 3.0 mi North 10.4 mph - N/A   Overcast
9:56 AM -11.2 °F -27.8 °F -14.8 °F 84% 29.11 in 5.0 mi North 8.1 mph - N/A   Overcast
10:16 AM -11.2 °F -24.8 °F -14.8 °F 84% 29.11 in 5.0 mi North 5.8 mph - N/A   Overcast
10:36 AM -11.2 °F -27.8 °F -14.8 °F 84% 29.11 in 5.0 mi North 8.1 mph - N/A   Overcast
10:56 AM -11.2 °F -26.4 °F -14.8 °F 84% 29.11 in 5.0 mi North 6.9 mph - N/A   Overcast
11:16 AM -11.2 °F -23.0 °F -14.8 °F 84% 29.11 in 4.0 mi North 4.6 mph - N/A   Overcast
11:36 AM -11.2 °F -24.8 °F -14.8 °F 84% 29.12 in 8.0 mi North 5.8 mph - N/A   Overcast
11:56 AM -11.2 °F - -14.8 °F 84% 29.11 in 5.0 mi Calm Calm - N/A   Overcast
12:16 PM -11.2 °F - -14.8 °F 84% 29.11 in 6.0 mi Calm Calm - N/A   Overcast
12:36 PM -11.2 °F - -16.6 °F 77% 29.11 in 5.0 mi Calm Calm - N/A   Overcast
12:56 PM -11.2 °F - -16.6 °F 77% 29.12 in 10.0 mi Calm Calm - N/A   Overcast
1:16 PM -11.2 °F - -14.8 °F 84% 29.11 in 10.0 mi Calm Calm - N/A   Overcast
1:36 PM -11.2 °F -26.4 °F -14.8 °F 84% 29.11 in 3.0 mi North 6.9 mph - N/A   Overcast
1:56 PM -11.2 °F -23.0 °F -14.8 °F 84% 29.11 in 4.0 mi North 4.6 mph - N/A   Overcast
2:16 PM -11.2 °F -24.8 °F -14.8 °F 84% 29.12 in 3.0 mi North 5.8 mph - N/A   Overcast
2:36 PM -11.2 °F -23.0 °F -14.8 °F 84% 29.11 in 5.0 mi North 4.6 mph - N/A   Overcast
2:56 PM -11.2 °F -23.0 °F -16.6 °F 77% 29.11 in 9.0 mi North 4.6 mph - N/A   Mostly Cloudy
3:16 PM -11.2 °F -23.0 °F -14.8 °F 84% 29.11 in 10.0 mi NNW 4.6 mph - N/A   Overcast
3:36 PM -11.2 °F - -14.8 °F 84% 29.11 in 3.0 mi Calm Calm - N/A   Overcast
3:56 PM -11.2 °F -23.0 °F -14.8 °F 84% 29.11 in 1.5 mi North 4.6 mph - N/A   Overcast
4:36 PM -11.2 °F -23.0 °F -14.8 °F 84% 29.11 in 10.0 mi North 4.6 mph - N/A   Overcast
4:56 PM -9.4 °F -20.9 °F -14.8 °F 77% 29.11 in 5.0 mi NNW 4.6 mph - N/A   Overcast
5:16 PM -9.4 °F -18.6 °F -14.8 °F 77% 29.11 in 2.0 mi North 3.5 mph - N/A   Overcast
5:36 PM -9.4 °F -20.9 °F -14.8 °F 77% 29.11 in 4.0 mi North 4.6 mph - N/A   Overcast
5:56 PM -9.4 °F -24.3 °F -14.8 °F 77% 29.11 in 10.0 mi North 6.9 mph - N/A   Overcast
6:16 PM -9.4 °F -22.7 °F -13.0 °F 84% 29.11 in 3.0 mi North 5.8 mph - N/A   Overcast
6:36 PM -9.4 °F -20.9 °F -13.0 °F 84% 29.12 in 2.0 mi North 4.6 mph - N/A   Overcast
6:56 PM -9.4 °F -20.9 °F -13.0 °F 84% 29.11 in 2.0 mi NE 4.6 mph - N/A   Overcast
7:16 PM -9.4 °F - -13.0 °F 84% 29.11 in 2.5 mi Calm Calm - N/A   Overcast
7:36 PM -9.4 °F - -14.8 °F 77% 29.12 in 2.0 mi Calm Calm - N/A   Overcast
7:56 PM -9.4 °F - -14.8 °F 77% 29.11 in 6.0 mi Calm Calm - N/A   Overcast
8:16 PM -9.4 °F - -14.8 °F 77% 29.12 in 9.0 mi Calm Calm - N/A   Overcast
8:36 PM -9.4 °F - -14.8 °F 77% 29.12 in 9.0 mi Calm Calm - N/A   Overcast
8:56 PM -9.4 °F - -14.8 °F 77% 29.12 in 8.0 mi Calm Calm - N/A   Overcast
9:16 PM -9.4 °F - -13.0 °F 84% 29.12 in 4.0 mi Calm Calm - N/A   Overcast
9:36 PM -9.4 °F - -13.0 °F 84% 29.13 in 4.0 mi Calm Calm - N/A   Overcast
9:56 PM -9.4 °F -20.9 °F -13.0 °F 84% 29.13 in 4.0 mi NNW 4.6 mph - N/A   Overcast
10:16 PM -9.4 °F -18.6 °F -13.0 °F 84% 29.13 in 2.5 mi NNW 3.5 mph - N/A   Overcast
10:36 PM -9.4 °F -20.9 °F -13.0 °F 84% 29.13 in 1.5 mi North 4.6 mph - N/A   Overcast
10:56 PM -9.4 °F -18.6 °F -13.0 °F 84% 29.14 in 2.0 mi North 3.5 mph - N/A   Overcast
11:16 PM -9.4 °F -18.6 °F -13.0 °F 84% 29.14 in 3.0 mi North 3.5 mph - N/A   Overcast
11:36 PM -9.4 °F -22.7 °F -13.0 °F 84% 29.15 in 3.0 mi North 5.8 mph - N/A   Overcast
11:56 PM -9.4 °F -25.6 °F -14.8 °F 77% 29.15 in 5.0 mi North 8.1 mph - N/A   Overcast